Simultaneous Nadir Overpasses (SNOs) Predictions

Prediction of SNOs between GOES-16 and METOP-C Satellite Orbit:

Table of predicted SNOs for the next 14.0 days since TLE Epoch: 12/28/2019
Index Date Time (GOES-16) GOES-16 Lat,Lon METOP-C Lat,Lon Distance(km) Time Diff (sec)
1 12/28/2019 14:19:23 0.03, -75.20 -0.68, -71.92 373.22 80
2 12/30/2019 02:35:27 -0.03, -75.20 -0.29, -76.45 141.95 80
3 12/31/2019 02:17:16 -0.04, -75.21 0.81, -71.40 433.78 80
4 01/01/2020 14:33:09 0.04, -75.23 0.17, -75.89 74.44 80
5 01/04/2020 02:31:02 -0.04, -75.26 -0.05, -75.37 12.60 80
6 01/06/2020 14:31:24 0.04, -75.30 -0.07, -74.81 56.48 80
7 01/08/2020 02:47:27 -0.04, -75.32 -0.96, -79.32 457.29 80
8 01/09/2020 02:29:16 -0.04, -75.33 0.19, -74.29 119.26 80
9 01/10/2020 14:45:10 0.04, -75.37 0.78, -78.77 387.91 80




NCC Satellite Simultaneous Nadir Overpasses (SNOs) Prediction Service
